Regional Weather Roundup
Issued by NWS

Home | Current Version | Previous Version | Graphics & Text | Print | Product List | Glossary On
Versions: 1 2 3 4 5 6 7 8 9 10 11 12 13 14 15 16 17 18 19 20 21 22 23 24 25 26 27 28 29 30 31 32 33 34 35 36 37 38 39 40 41 42 43 44 45 46 47 48 49 50
000
ASUS45 KCYS 211410
RWRWY

WYOMING REGIONAL WEATHER ROUNDUP
NATIONAL WEATHER SERVICE CHEYENNE WY
800 AM MDT THU AUG 21 2014

NOTE:  "FAIR" INDICATES FEW OR NO CLOUDS BELOW 12,000 FEET
WITH NO SIGNIFICANT WEATHER AND/OR OBSTRUCTIONS TO VISIBILITY.

WYZ001-211500-
YELLOWSTONE NATIONAL PARK

CITY           SKY/WX    TMP DP  RH WIND       PRES   REMARKS
LK YELLOWSTONE   N/A     46  45  96 CALM      30.22R
W YELLOWSTONE  NOT AVBL

$$
WYZ002>013-054>058-071-098>099-211500-
NORTHERN WYOMING

CITY           SKY/WX    TMP DP  RH WIND       PRES   REMARKS
JACKSON        CLOUDY    50  50 100 S5        30.16R FOG
CODY           CLOUDY    57  48  72 NE5       30.07S
GREYBULL       MOSUNNY   63  52  67 CALM      30.01R
WORLAND        MOSUNNY   58  48  69 S3        30.03R
SHERIDAN       MOSUNNY   63  49  60 NW8       30.02R
BUFFALO        MOSUNNY   60  47  61 N10       30.06R
GILLETTE       MOSUNNY   62  55  77 NW3       30.03R
HULETT         PTSUNNY   61  55  82 MISG      30.02
NEWCASTLE      FAIR      70  50  49 MISG      30.00

$$
WYZ014>020-022>026-101>103-211500-
CENTRAL WYOMING

CITY           SKY/WX    TMP DP  RH WIND       PRES   REMARKS
BIG PINEY      LGT RAIN  48  46  93 E5        30.21R
PINEDALE       CLOUDY    46  46 100 CALM      30.21R
DUBOIS         CLOUDY    50  41  71 NW9       30.15S
LANDER         PTSUNNY   58  50  75 E7        30.07R
RIVERTON       PTSUNNY   59  44  57 NE5       30.07R
CASPER         SUNNY     61  44  53 SW12      30.07S
DOUGLAS        MOSUNNY   64  46  52 NW5       30.07R

$$
WYZ021-027>030-104>119-211500-
SOUTHERN WYOMING

CITY           SKY/WX    TMP DP  RH WIND       PRES   REMARKS
EVANSTON       CLOUDY    52  48  86 SW8       30.21R
KEMMERER       CLOUDY    48  46  93 CALM      30.21S
FORT BRIDGER     N/A     53  49  84 W6        30.23R
ROCK SPRINGS   MOSUNNY   53  45  74 NE5       30.20R
DIXON          FAIR      53  49  84 E5        30.24S
RAWLINS        SUNNY     56  46  69 CALM      30.21R
SARATOGA       FAIR      50  46  87 MISG      30.23R
LARAMIE        MOSUNNY   58  44  60 SW6       30.22R
CHEYENNE       SUNNY     65  45  48 W12       30.13S
TORRINGTON     MOSUNNY   64  51  62 NW6       30.01R
PINE BLUFFS    FAIR      64  46  52 W12       30.08S

$$



USA.gov is the U.S. government's official web portal to all federal, state and local government web resources and services.